New Philadelphia, OH

9:09 AM EDT on August 18, 2017 (GMT -0400)
Clever

Weather History for KPHD - May, 2013

Change the Weather History Date:

Friday, May 3, 2013

  Actual Average Record
Temperature  
Mean Temperature 66 °F 56 °F  
Max Temperature 78 °F 69 °F 89 °F (2012)
Min Temperature 53 °F 44 °F 27 °F (1978)
Degree Days  
Heating Degree Days 0 9  
Month to date heating degree days 1 28  
Since 1 July heating degree days 5441 5443  
Cooling Degree Days 1 0  
Month to date cooling degree days 1 0  
Year to date cooling degree days 13 7  
Growing Degree Days 16 (Base 50)    
Moisture  
Dew Point 37 °F    
Average Humidity 40    
Maximum Humidity 59    
Minimum Humidity 21    
Precipitation  
Precipitation 0.00 in 0.12 in 1.04 in (2011)
Month to date precipitation 0.00 0.33  
Year to date precipitation 8.07 11.76  
Sea Level Pressure  
Sea Level Pressure 30.15 in    
Wind  
Wind Speed 11 mph (ESE)    
Max Wind Speed 18 mph    
Max Gust Speed 28 mph    
Visibility 10 miles    
Events      
T = Trace of Precipitation, MM = Missing Value Source: NWS Daily Summary

Daily Weather History Graph

Daily Weather History Graph

Search for Another Location

Airport or City:

Trip Planner

Search our weather history database for the weather conditions in past years. The results will help you decide how hot, cold, wet, or windy it might be!

Date:

Astronomy

May. 03, 2013 Rise Set
Actual Time 6:22 AM EDT 8:23 PM EDT
Civil Twilight 5:52 AM EDT 8:53 PM EDT
Nautical Twilight 5:15 AM EDT 9:30 PM EDT
Astronomical Twilight 4:36 AM EDT 10:09 PM EDT
Moon 2:47 AM EDT (5/3) 2:15 PM EDT (5/3)
Length of Visible Light 15h 01m
Length of Day
14h 01m
Last Quarter, 37% of the Moon is Illuminated
May 3
Last Quarter
May 9
New
May 18
First Quarter
May 25
Full
May 31
Last Quarter

Hourly Weather History & Observations

Time (EDT) Temp. Dew Point Humidity Pressure Visibility Wind Dir Wind Speed Gust Speed Precip Events Conditions
12:53 AM 63.0 °F 35.1 °F 35% 30.18 in 10.0 mi ESE 11.5 mph - N/A   Clear
1:53 AM 62.1 °F 34.0 °F 35% 30.17 in 10.0 mi ESE 8.1 mph - N/A   Clear
2:53 AM 60.1 °F 36.0 °F 41% 30.17 in 10.0 mi SE 9.2 mph - N/A   Clear
3:53 AM 57.0 °F 37.9 °F 49% 30.18 in 10.0 mi ESE 5.8 mph - N/A   Clear
4:53 AM 55.9 °F 37.9 °F 51% 30.18 in 10.0 mi SE 5.8 mph - N/A   Clear
5:53 AM 53.1 °F 39.0 °F 59% 30.19 in 10.0 mi SE 4.6 mph - N/A   Clear
6:53 AM 55.0 °F 37.9 °F 53% 30.20 in 10.0 mi Calm Calm - N/A   Clear
7:53 AM 57.9 °F 39.0 °F 49% 30.21 in 10.0 mi ESE 6.9 mph - N/A   Clear
8:53 AM 60.1 °F 37.9 °F 44% 30.22 in 10.0 mi SE 10.4 mph - N/A   Clear
9:53 AM 64.0 °F 36.0 °F 35% 30.21 in 10.0 mi SE 11.5 mph - N/A   Clear
10:53 AM 66.0 °F 36.0 °F 33% 30.20 in 10.0 mi SE 10.4 mph - N/A   Clear
11:53 AM 70.0 °F 35.1 °F 28% 30.19 in 10.0 mi East 12.7 mph 19.6 mph N/A   Clear
12:53 PM 72.0 °F 33.1 °F 24% 30.17 in 10.0 mi SE 11.5 mph 20.7 mph N/A   Clear
1:53 PM 73.9 °F 34.0 °F 23% 30.14 in 10.0 mi SE 10.4 mph 18.4 mph N/A   Clear
2:53 PM 75.0 °F 36.0 °F 24% 30.13 in 10.0 mi ESE 15.0 mph 20.7 mph N/A   Clear
3:53 PM 77.0 °F 35.1 °F 22% 30.10 in 10.0 mi East 19.6 mph 24.2 mph N/A   Clear
4:53 PM 78.1 °F 35.1 °F 21% 30.09 in 10.0 mi ESE 18.4 mph 27.6 mph N/A   Unknown
5:53 PM 77.0 °F 36.0 °F 23% 30.08 in 10.0 mi ESE 10.4 mph 24.2 mph N/A   Clear
6:53 PM 77.0 °F 36.0 °F 23% 30.08 in 10.0 mi ESE 17.3 mph 24.2 mph N/A   Clear
7:53 PM 73.0 °F 41.0 °F 31% 30.09 in 10.0 mi ESE 13.8 mph - N/A   Clear
8:53 PM 70.0 °F 39.9 °F 33% 30.11 in 10.0 mi ESE 15.0 mph 24.2 mph N/A   Clear
9:53 PM 68.0 °F 39.9 °F 36% 30.13 in 10.0 mi ESE 13.8 mph 20.7 mph N/A   Clear
10:53 PM 64.9 °F 43.0 °F 45% 30.14 in 10.0 mi ESE 13.8 mph - N/A   Clear
11:53 PM 63.0 °F 43.0 °F 48% 30.14 in 10.0 mi ESE 9.2 mph 18.4 mph N/A   Clear